OpenBCM V1.08-5-g2f4a (Linux)

Packet Radio Mailbox

IZ3LSV

[San Dona' di P. JN]

 Login: GUEST





  
CX2SA  > KEPS     06.09.24 01:33l 390 Lines 18625 Bytes #73 (0) @ AMSAT
BID : ORB24243.1
Read: GUEST
Subj: 2Line Orbital Elements 24243.AMSAT
Path: IZ3LSV<I0OJJ<N6RME<CX2SA
Sent: 240906/0024Z @:CX2SA.SAL.URY.SOAM #:43499 [Salto] FBB7.00e $:ORB24243.1
From: CX2SA@CX2SA.SAL.URY.SOAM
To  : KEPS@AMSAT


QST de W1STR

AMSAT Orbital Elements for Amateur Satellites in TLE Format
>From Orbital Analysis Office
New England Sci-Tech STEM Education Center
Natick, MA August 30, 2024
To all radio amateurs


These element sets describe the orbits of various satellites
in use by the amateur radio community. For details see:
www.amsat.org/keplerian-elements-formats/

A daily update of element sets is available at:
www.amsat.org/tle/daily-bulletin.txt
or without bulletin text:
www.amsat.org/tle/dailytle.txt


AO-07
1 07530U 74089B   24241.78984206 -.00000019  00000-0  16861-3 0  9996
2 07530 101.9839 237.1294 0011951 307.2196 227.1509 12.53678579278131
UO-11
1 14781U 84021B   24242.64196060  .00004581  00000-0  51458-3 0  9996
2 14781  97.7111 209.7548 0007871 181.3888 178.7308 14.87200395180400
AO-27
1 22825U 93061C   24242.13942586  .00000392  00000-0  16754-3 0  9990
2 22825  98.7824 295.6555 0007711 219.5698 140.4921 14.30560719613313
FO-29
1 24278U 96046B   24241.94886713  .00000071  00000-0  10925-3 0  9995
2 24278  98.5793 167.0613 0350200 359.9843   0.1231 13.53203672384274
NOAA-15
1 25338U 98030A   24242.80803018  .00000576  00000-0  25570-3 0  9993
2 25338  98.5661 268.3898 0011480 108.2123 252.0309 14.26682756367939
GO-32
1 25397U 98043D   24242.65947690  .00000412  00000-0  19893-3 0  9990
2 25397  98.9293 210.5061 0000837   6.1951 353.9238 14.24104377358094
ISS
1 25544U 98067A   24242.65691417  .00026114  00000-0  47784-3 0  9990
2 25544  51.6415 311.3446 0011238 294.9456 162.2968 15.49102662469942
NO-44
1 26931U 01043C   24241.46044630  .00000611  00000-0  26141-3 0  9994
2 26931  67.0512 144.8279 0007765 270.2170  89.8042 14.31340335196298
SO-50
1 27607U 02058C   24241.60769199  .00004877  00000-0  66529-3 0  9994
2 27607  64.5572 358.8736 0025757  72.2702 288.1211 14.79487548167249
CO-55
1 27844U 03031E   24241.28591414  .00001014  00000-0  46596-3 0  9998
2 27844  98.6794 247.3207 0008551 299.3649  60.6675 14.23410691 98048
CO-57
1 27848U 03031J   24240.96756813  .00000792  00000-0  37239-3 0  9998
2 27848  98.6824 247.2102 0008708 318.6727  41.3791 14.22829865 97742
RS-22
1 27939U 03042A   24242.86858021  .00004612  00000-0  76931-3 0  9993
2 27939  98.2995  40.2898 0011837 182.8599 314.7193 14.70420421119102
NOAA-18
1 28654U 05018A   24242.83762979  .00000547  00000-0  31509-3 0  9991
2 28654  98.8706 319.1818 0013812 210.7031 149.3334 14.13302910993669
CO-58
1 28895U 05043F   24242.65081465  .00006185  00000-0  10773-2 0  9993
2 28895  98.2106  18.6462 0016260 124.0573 236.2178 14.68319745  5466
CO-65
1 32785U 08021C   24242.79514004  .00013526  00000-0  11460-2 0  9991
2 32785  97.7616 207.5880 0013861  83.5954 276.6846 14.98028294886565
AAUSAT2
1 32788U 08021F   24241.67668984  .00059965  00000-0  25820-2 0  9999
2 32788  97.5987 222.3663 0000694 231.8099 128.3075 15.22371457889334
CO-66
1 32791U 08021J   24242.41240837  .00022448  00000-0  15383-2 0  9998
2 32791  97.6954 213.2930 0007417  73.4470 286.7571 15.06034012887616
RS-30
1 32953U 08025A   24242.79176212  .00000068  00000-0  41555-3 0  9993
2 32953  82.5020  43.6905 0018711 305.6367  54.2969 12.43146685738278
PRISM
1 33493U 09002B   24241.13104463  .00047161  00000-0  19137-2 0  9990
2 33493  98.1976 295.1754 0009659   3.7003 356.4302 15.24411804849980
NOAA-19
1 33591U 09005A   24242.79959677  .00000507  00000-0  29555-3 0  9999
2 33591  99.0412 299.3578 0014826  85.8837 274.4028 14.13095518802027
SRMSAT
1 37841U 11058D   24241.87307277  .00000786  00000-0  28457-3 0  9992
2 37841  19.9723  77.1358 0011747 173.6885 215.9246 14.11183777664842
RS-40
1 38735U 12041C   24242.20477502  .00000039  00000-0  21278-3 0  9990
2 38735  82.4756 124.3719 0018393  60.1716 300.1189 12.42614220548342
ZACUBE-1
1 39417U 13066B   24242.12814687  .00011868  00000-0  11934-2 0  9995
2 39417  97.7384 196.5334 0047149 279.3748  80.2141 14.90541454582446
Delfi-N3xt
1 39428U 13066N   24241.52694274  .00015952  00000-0  19574-2 0  9994
2 39428  97.8325 158.0135 0097015 212.7588 146.7586 14.79834731576967
GOMX-1
1 39430U 13066Q   24242.77439881  .00006722  00000-0  10997-2 0  9991
2 39430  97.7216 112.6906 0139284  19.4541 341.1905 14.64814873573812
LO-74
1 39440U 13066AA  24242.41239648  .00012041  00000-0  13755-2 0  9998
2 39440  97.8145 184.5539 0069832  36.3351 324.2575 14.84420347580390
AO-73
1 39444U 13066AE  24241.40308597  .00015235  00000-0  14135-2 0  9991
2 39444  97.7233 199.1485 0044273 259.9418  99.6805 14.93765184580886
DTUSAT-2
1 40030U 14033W   24242.57358759  .00015169  00000-0  12219-2 0  9990
2 40030  98.0169 197.0521 0006745 281.5015  78.5449 15.00014810554204
EO-80
1 40032U 14033Y   24242.60695389  .00015076  00000-0  12140-2 0  9999
2 40032  98.0077 197.0802 0007155 252.4288 107.6153 15.00028195554196
XW-2C
1 40906U 15049H   24242.80948392  .00061671  00000-0  11300-2 0  9993
2 40906  97.4751 261.8323 0007986  58.6274 301.5757 15.49074042495845
XW-2D
1 40907U 15049J   24242.83861434  .00119424  00000-0  13984-2 0  9998
2 40907  97.4671 265.3740 0005162  60.1346 300.0423 15.61132907496148
LILACSAT-2
1 40908U 15049K   24242.77281062  .00019290  00000-0  69840-3 0  9998
2 40908  97.5251 252.1077 0014145  93.1662 267.1195 15.28349355494720
XW-2B
1 40911U 15049N   24242.84641124  .00114402  00000-0  14082-2 0  9997
2 40911  97.4650 265.3422 0005484  62.0756 298.1055 15.59836096496000
IO-86
1 40931U 15052B   24231.70395842  .00002296  00000-0  22250-3 0  9993
2 40931   5.9997 265.9807 0013402 250.6059 109.2619 14.78018769480834
ChubuSat-2
1 41338U 16012B   24242.77773456  .00011963  00000-0  72001-3 0  9992
2 41338  31.0002 276.7753 0011072 251.6487 108.2947 15.09555201468729
ChubuSat-3
1 41339U 16012C   24242.42123254  .00010803  00000-0  66280-3 0  9994
2 41339  31.0070 278.0522 0011055 252.2601 107.6830 15.08835133468649
Horyu-4
1 41340U 16012D   24240.30525293  .00020372  00000-0  93982-3 0  9991
2 41340  31.0009 231.3044 0008392 329.0778  30.9368 15.19036741468961
Lapan A3
1 41603U 16040E   24242.83333753  .00007313  00000-0  28606-3 0  9993
2 41603  97.1431 253.2537 0011476 190.2413 169.8594 15.26059395454456
Pratham
1 41783U 16059A   24242.27969525  .00002521  00000-0  47335-3 0  9998
2 41783  97.8361 258.1928 0033340 146.5479 213.7840 14.65172278423246
CAS-2T
1 41847U 16066G   24242.19158271  .00002355  00000-0  35189-3 0  9995
2 41847  98.4553 312.9478 0351758 317.6065  39.8428 14.41677435410013
CAS-4B
1 42759U 17034B   24242.82610536  .00032405  00000-0  10341-2 0  9992
2 42759  43.0151 169.3797 0010794 128.1255 232.0573 15.31864763398680
CAS-4A
1 42761U 17034D   24242.82140471  .00031916  00000-0  10135-2 0  9998
2 42761  43.0190 167.7011 0010497 141.7460 218.4140 15.32031259398692
Aalto 1
1 42775U 17036L   24241.04230611  .01413036  14355-2  13650-2 0  9997
2 42775  97.0802 272.9442 0007296 219.5797 140.4956 16.11987389400463
D-SAT
1 42794U 17036AF  24241.90997875  .00013721  00000-0  92301-3 0  9992
2 42794  97.4787 221.1965 0105302 260.8198  98.1103 15.02352812391634
TechnoSat
1 42829U 17042E   24242.84287148  .00009384  00000-0  80813-3 0  9992
2 42829  97.3872  59.8352 0012381 178.2448 181.8820 14.97488730388192
AO-91
1 43017U 17073E   24242.38604422  .00020476  00000-0  12134-2 0  9998
2 43017  97.5662 115.3248 0206188  49.0386 312.8475 14.95234714366590
TianYi 6
1 43158U 18008D   24242.69128352  .00189540  00000-0  20844-2 0  9995
2 43158  97.2511 292.1477 0007705 177.9821 182.1470 15.62516911365884
S-Net D
1 43186U 18014G   24242.18441045  .00011938  00000-0  82632-3 0  9993
2 43186  97.5818 142.7648 0012610 113.6733 246.5818 15.05760844359481
S-Net B
1 43187U 18014H   24241.92125173  .00011765  00000-0  81460-3 0  9992
2 43187  97.5825 142.4609 0013419 110.9629 249.3036 15.05744777359442
S-Net A
1 43188U 18014J   24242.18549870  .00011915  00000-0  82452-3 0  9995
2 43188  97.5830 142.8395 0013337 110.6949 249.5709 15.05761865359486
S-Net C
1 43189U 18014K   24241.92333125  .00011823  00000-0  81813-3 0  9999
2 43189  97.5846 142.5440 0015052 105.7693 254.5195 15.05744844357996
Ten-Koh
1 43677U 18084G   24242.42998925  .00007935  00000-0  69603-3 0  9991
2 43677  98.0708  38.1860 0014301 133.5618 226.6793 14.96840908317671
PO-101
1 43678U 18084H   24242.80628432  .00005418  00000-0  49051-3 0  9996
2 43678  98.0806  43.0081 0009828 140.6193 219.5743 14.95797886317925
QO-100
1 43700U 18090A   24241.91854758  .00000128  00000-0  00000-0 0  9993
2 43700   0.0153 124.0119 0002606  74.9293 135.1269  1.00271886 21082
MinXSS-2
1 43758U 18099A   24241.92528343  .00025450  00000-0  15011-2 0  9999
2 43758  97.5480 303.2496 0016648  71.9176 288.3866 15.11420410313765
AO-95
1 43770U 18099N   24241.10284166  .00016014  00000-0  10534-2 0  9996
2 43770  97.5398 297.4650 0014647 116.9224 243.3502 15.07558624313395
RANGE-B
1 43772U 18099Q   24241.89990438  .00029020  00000-0  16571-2 0  9998
2 43772  97.5188 302.0176 0005011  32.3566 327.7972 15.12667974313703
RANGE-A
1 43773U 18099R   24241.87845652  .00011327  00000-0  83197-3 0  9994
2 43773  97.4968 292.7999 0014619  88.6147 271.6754 15.03518674313358
MOVE-II
1 43780U 18099Y   24241.41791919  .00055896  00000-0  25576-2 0  9993
2 43780  97.5145 303.9087 0006674  95.8212 264.3784 15.20292849313884
SNUSat 2
1 43782U 18099AA  24241.89225969  .00015804  00000-0  10676-2 0  9994
2 43782  97.5083 296.9888 0015270  59.1980 301.0749 15.06567302313517
SnugLite
1 43784U 18099AC  24241.12050590  .00014041  00000-0  91961-3 0  9997
2 43784  97.4887 295.5414 0005381  76.1259 284.0567 15.07824952313471
